Regional Weather Roundup
Issued by NWS

Home | Current Version | Previous Version | Text Only | Print | Product List | Glossary Off
Versions: 1 2 3 4 5 6 7 8 9 10 11 12 13 14 15 16 17 18 19 20 21 22 23 24 25 26 27

000
ASUS45 KBOU 220507
RWRCO

WEATHER ROUNDUP FOR COLORADO
NATIONAL WEATHER SERVICE DENVER/BOULDER CO
1100 PM MDT SAT OCT 21 2017

NOTE: "FAIR" INDICATES FEW OR NO CLOUDS BELOW 12000 FEET WITH NO
SIGNIFICANT WEATHER AND/OR OBSTRUCTIONS TO VISIBILITY.

COZ001>005-013-030-031-220600-
...NORTHWEST COLORADO...

CITY           SKY/WX    TMP DP  RH WIND       PRES   REMARKS
CRAIG          MOCLDY    27  21  78 CALM      30.31R
HAYDEN         CLOUDY    33  23  66 E3        30.31R
MEEKER         FAIR      30  25  81 CALM      30.33R
RABBIT EARS PA FAIR      19  18  93 W13G22    30.27R WCI   7
STEAMBOAT SPGS CLOUDY    29  23  78 CALM      30.30S
WALDEN         NOT AVBL
$$

COZ006>008-011-220600-
...WEST CENTRAL VALLEYS...

CITY           SKY/WX    TMP DP  RH WIND       PRES   REMARKS
GRAND JUNCTION FAIR      38  11  32 E3        30.31R
MONTROSE       FAIR      35  17  47 SE10      30.37R WCI  27
EAGLE          FAIR      29  23  78 E7        30.36R WCI  22
RIFLE          FAIR      35  23  61 CALM      30.34R
DELTA          FAIR      38   8  29 NE6       30.34S
NUCLA          FAIR      36   5  27 E10       30.39R
$$

COZ017>023-064>068-220600-
...SOUTHWEST COLORADO...

CITY           SKY/WX    TMP DP  RH WIND       PRES   REMARKS
DURANGO        FAIR      36   5  27 N6        30.30R
CORTEZ         FAIR      29  12  49 NE6       30.34R WCI  23
PAGOSA SPRINGS FAIR      31   4  32 CALM      30.34R
TELLURIDE      FAIR      29  15  57 SE8       30.41R WCI  21
WOLF CREEK PAS FAIR      21   0  39 S9        30.44R WCI  11
$$

COZ009-010-012-014-032>034-037-058>063-220600-
...CENTRAL COLORADO...

CITY           SKY/WX    TMP DP  RH WIND       PRES   REMARKS
ASPEN          FAIR      26  20  77 S7        30.34R WCI  18
BUENA VISTA    FAIR      35  10  35 W10G16    30.28R WCI  27
COPPER MTN     FAIR      19  12  73 MISG      30.32S
BERTHOUD PASS  FAIR      12   3  67 NW43G51   30.21S WCI -12
COTTONWOOD PAS FAIR      34  10  37 NW7       30.29R WCI  28
GUNNISON       FAIR      26  15  63 N3        30.36R
KREMMLING      FAIR      28  21  74 NE3       30.32S
LEADVILLE      FAIR      25   8  48 N12G20    30.30R WCI  14
MONARCH PASS   FAIR      19   5  53 W40G47    30.41S WCI  -2
SALIDA         FAIR      38  10  30 NW8       30.35R
SUNLIGHT       FAIR      18  12  79 SW8G16    30.40R WCI   7
WILKERSON PASS FAIR      23   1  39 W5        30.32R WCI  17
$$

COZ069>075-220600-
...SAN LUIS VALLEY/SANGRE DE CRISTO MOUNTAINS...

CITY           SKY/WX    TMP DP  RH WIND       PRES   REMARKS
ALAMOSA        FAIR      25   7  46 W7        30.30R WCI  17
DEL NORTE      FAIR      27   4  37 W3        30.31R
LA VETA PASS   FAIR      30   1  29 SW16G25   30.38F WCI  19
SAGUACHE       FAIR      32  12  43 W8        30.32R WCI  25
$$

COZ035-036-038>040-220600-
...NORTHERN COLORADO FRONT RANGE...

CITY           SKY/WX    TMP DP  RH WIND       PRES   REMARKS
DENVER INTL AP FAIR      36  12  37 S13       30.15R
DMNS CITY PARK   N/A     40  13  33 SW3G10    30.15S
AURORA         CLEAR     32  13  45 S10       30.16R WCI  24
FRONT RANGE AP FAIR      34  18  51 S9        30.16S WCI  26
ERIE MUNI ARPT FAIR      35  17  47 S3        30.19S
BOULDER MUN AP FAIR      37  18  44 CALM      30.14R
CENTENNIAL     FAIR      37  12  35 S9        30.16S
BROOMFIELD     FAIR      41  16  36 W14       30.15S
FORT COLLINS   FAIR      36  18  48 S7        30.13S
LONGMONT       FAIR      35  20  55 W5        30.15F WCI  31
$$

COZ041-046-047-076>085-087-088-220600-
...PIKES PEAK/PALMER DIVIDE AND SOUTHERN FOOTHILLS...

CITY           SKY/WX    TMP DP  RH WIND       PRES   REMARKS
COLO. SPRINGS  FAIR      35  11  36 N8        30.20R WCI  29
A. F. ACADEMY  FAIR      40   3  21 SW6       30.19R
SCHRIEVER AFB  FAIR      36   9  32 N8        30.20R
CHEYENNE MTN   FAIR      40   2  19 NW6       30.14R
ELLICOTT         N/A    N/A N/A N/A N5        30.18R
FALCON         FAIR      31   9  38 NW6       30.21R WCI  26
FORT CARSON    FAIR      32  10  39 SE3       30.17S
LIMON          FAIR      26  14  60 W3        30.17R
MONUMENT HILL  FAIR      25  12  58 S6        30.21R WCI  18
CANON CITY     FAIR      37   9  30 W5        30.19R
WALSENBURG     FAIR      36  12  38 SW7       30.21R
TRINIDAD       FAIR      38  26  62 W10       30.20R
$$

COZ042>045-048>051-090-091-220600-
...NORTHEAST COLORADO...

CITY           SKY/WX    TMP DP  RH WIND       PRES   REMARKS
GREELEY ARPT   FAIR      31  23  72 S7        30.14  WCI  24
AKRON          FAIR      39  16  39 NW9       30.12S
BURLINGTON     FAIR      30  18  60 W10       30.12S WCI  21
WRAY           FAIR      34  21  60 W7        30.10S WCI  28
YUMA           NOT AVBL
STERLING       NOT AVBL
HOLYOKE        FAIR      43  18  36 W12G20    30.10S
FORT MORGAN    FAIR      40  15  35 NW13      30.12F
$$

COZ086-089-092>099-220600-
...SOUTHEAST COLORADO...

CITY           SKY/WX    TMP DP  RH WIND       PRES   REMARKS
PUEBLO         FAIR      33  15  47 CALM      30.18R
LA JUNTA       FAIR      40  14  34 SW6       30.17R
LAMAR          FAIR      39  13  34 CALM      30.13R
SPRINGFIELD      N/A     30  19  63 NW9       30.15R WCI  22
$$




USA.gov is the U.S. government's official web portal to all federal, state and local government web resources and services.